Location: Unspecified
(50.7693°N, 0.0000°E)
Time: 13:54:49
(UTC+00:00)

Transit 2A - Pass Details

Date: 04 July 2019
Orbit: 597 x 962 km, 66.7° (Epoch: 24 August)

Event Time Altitude Azimuth Distance (km) Brightness Sun altitude
Rises 00:30:17 0° 274° (W) 3,630 9.5 -16.1°
Reaches altitude 10° 00:33:32 10° 289° (WNW) 2,658 8.9 -16.0°
Maximum altitude 00:38:14 22° 338° (NNW) 1,889 8.8 -15.9°
Drops below altitude 10° 00:42:43 10° 28° (NNE) 2,521 9.8 -15.8°
Sets 00:45:43 0° 44° (NE) 3,394 10.3 -15.8°
